timestamp,wind_dir_avg,wind_spd_max_dir,wind_spd_avg,wind_spd_gust,battery_voltage,lat,long
2018-07-11 00:00:00+00:00,220.0,224.0,6.69,7.34,,47.59359,-54.27349
2018-07-11 00:10:00+00:00,217.0,217.0,6.79,7.57,,47.59359,-54.27349
2018-07-11 00:20:00+00:00,218.0,219.0,7.24,7.67,,47.59359,-54.27349
2018-07-11 00:30:00+00:00,217.0,217.0,6.96,7.48,,47.59359,-54.27349
2018-07-11 00:40:00+00:00,215.0,217.0,7.51,8.12,,47.59359,-54.27349
2018-07-11 00:50:00+00:00,217.0,219.0,7.2,7.6,,47.59359,-54.27349
2018-07-11 01:00:00+00:00,213.0,213.0,6.6,7.05,,47.59359,-54.27349
2018-07-11 01:10:00+00:00,215.0,216.0,7.54,7.99,,47.59359,-54.27349
2018-07-11 01:20:00+00:00,216.0,217.0,8.03,8.73,,47.59359,-54.27349
2018-07-11 01:30:00+00:00,217.0,216.0,8.16,8.63,,47.59359,-54.27349
2018-07-11 01:40:00+00:00,217.0,219.0,8.29,8.92,,47.59359,-54.27349
2018-07-11 01:50:00+00:00,218.0,218.0,8.08,8.78,,47.59359,-54.27349
2018-07-11 02:00:00+00:00,216.0,215.0,8.04,8.8,,47.59359,-54.27349
2018-07-11 02:10:00+00:00,218.0,218.0,8.34,9.32,,47.59359,-54.27349
2018-07-11 02:20:00+00:00,224.0,225.0,7.14,7.67,,47.59359,-54.27349
2018-07-11 02:30:00+00:00,220.0,223.0,6.89,8.08,,47.59359,-54.27349
2018-07-11 02:40:00+00:00,214.0,217.0,6.36,6.98,,47.59359,-54.27349
2018-07-11 02:50:00+00:00,215.0,214.0,7.62,8.37,,47.59359,-54.27349
2018-07-11 03:00:00+00:00,220.0,219.0,8.05,8.68,,47.59359,-54.27349
2018-07-11 03:10:00+00:00,222.0,227.0,8.21,9.15,,47.59359,-54.27349
2018-07-11 03:20:00+00:00,225.0,223.0,9.9,11.54,,47.59359,-54.27349
2018-07-11 03:30:00+00:00,240.0,244.0,9.57,10.6,,47.59359,-54.27349
2018-07-11 03:40:00+00:00,230.0,225.0,9.02,9.99,,47.59359,-54.27349
2018-07-11 03:50:00+00:00,224.0,223.0,9.1,10.12,,47.59359,-54.27349
2018-07-11 04:00:00+00:00,220.0,220.0,8.38,9.2,,47.59359,-54.27349
2018-07-11 04:10:00+00:00,229.0,232.0,8.26,9.2,,47.59359,-54.27349
2018-07-11 04:20:00+00:00,227.0,227.0,9.26,10.96,,47.59359,-54.27349
2018-07-11 04:30:00+00:00,229.0,229.0,10.71,11.79,,47.59359,-54.27349
2018-07-11 04:40:00+00:00,233.0,227.0,9.03,10.13,,47.59359,-54.27349
2018-07-11 04:50:00+00:00,231.0,233.0,8.33,9.95,,47.59359,-54.27349
2018-07-11 05:00:00+00:00,221.0,225.0,8.25,9.45,,47.59359,-54.27349
2018-07-11 05:10:00+00:00,231.0,232.0,8.5,9.56,,47.59359,-54.27349
2018-07-11 05:20:00+00:00,234.0,236.0,7.23,8.39,,47.59359,-54.27349
2018-07-11 05:30:00+00:00,234.0,235.0,5.39,6.14,,47.59359,-54.27349
2018-07-11 05:40:00+00:00,229.0,232.0,8.46,9.44,,47.59359,-54.27349
2018-07-11 05:50:00+00:00,228.0,227.0,9.61,10.78,,47.59359,-54.27349
2018-07-11 06:00:00+00:00,232.0,231.0,8.71,10.39,,47.59359,-54.27349
2018-07-11 06:10:00+00:00,237.0,236.0,7.79,9.16,,47.59359,-54.27349
2018-07-11 06:20:00+00:00,230.0,226.0,7.56,8.84,,47.59359,-54.27349
2018-07-11 06:30:00+00:00,237.0,234.0,7.48,8.85,,47.59359,-54.27349
2018-07-11 06:40:00+00:00,246.0,247.0,8.62,9.88,,47.59359,-54.27349
2018-07-11 06:50:00+00:00,239.0,239.0,7.96,8.86,,47.59359,-54.27349
2018-07-11 07:00:00+00:00,241.0,240.0,6.48,7.63,,47.59359,-54.27349
2018-07-11 07:10:00+00:00,241.0,240.0,6.14,6.62,,47.59359,-54.27349
2018-07-11 07:20:00+00:00,248.0,236.0,5.49,6.37,,47.59359,-54.27349
2018-07-11 07:30:00+00:00,268.0,269.0,3.56,4.2,,47.59359,-54.27349
2018-07-11 07:40:00+00:00,247.0,249.0,3.1,3.72,,47.59359,-54.27349
2018-07-11 07:50:00+00:00,228.0,232.0,2.44,2.76,,47.59359,-54.27349
2018-07-11 08:00:00+00:00,209.0,205.0,3.16,3.71,,47.59359,-54.27349
2018-07-11 08:10:00+00:00,194.0,192.0,3.5,3.84,,47.59359,-54.27349
2018-07-11 08:20:00+00:00,208.0,208.0,3.1,3.48,,47.59359,-54.27349
2018-07-11 08:30:00+00:00,218.0,223.0,2.08,2.55,,47.59359,-54.27349
2018-07-11 08:40:00+00:00,219.0,217.0,2.44,2.68,,47.59359,-54.27349
2018-07-11 08:50:00+00:00,214.0,217.0,6.36,6.76,,47.59359,-54.27349
2018-07-11 09:00:00+00:00,195.0,198.0,6.22,6.75,,47.59359,-54.27349
2018-07-11 09:10:00+00:00,212.0,209.0,4.7,5.07,,47.59359,-54.27349
2018-07-11 09:20:00+00:00,216.0,216.0,4.98,5.45,,47.59359,-54.27349
2018-07-11 09:30:00+00:00,199.0,201.0,5.84,6.06,,47.59359,-54.27349
2018-07-11 09:40:00+00:00,203.0,202.0,4.99,5.29,,47.59359,-54.27349
2018-07-11 09:50:00+00:00,229.0,231.0,3.6,3.9,,47.59359,-54.27349
2018-07-11 10:00:00+00:00,253.0,256.0,3.77,4.19,,47.59359,-54.27349
2018-07-11 10:10:00+00:00,234.0,234.0,1.84,2.01,,47.59359,-54.27349
2018-07-11 10:20:00+00:00,216.0,218.0,3.27,3.65,,47.59359,-54.27349
2018-07-11 10:30:00+00:00,206.0,207.0,4.3,4.58,,47.59359,-54.27349
2018-07-11 10:40:00+00:00,185.0,184.0,5.86,6.14,,47.59359,-54.27349
2018-07-11 10:50:00+00:00,206.0,205.0,5.36,5.93,,47.59359,-54.27349
2018-07-11 11:00:00+00:00,210.0,210.0,5.78,6.27,,47.59359,-54.27349
2018-07-11 11:10:00+00:00,216.0,219.0,6.0,6.77,,47.59359,-54.27349
2018-07-11 11:20:00+00:00,217.0,216.0,5.47,6.13,,47.59359,-54.27349
2018-07-11 11:30:00+00:00,232.0,233.0,4.88,6.67,,47.59359,-54.27349
2018-07-11 11:40:00+00:00,236.0,239.0,7.03,8.16,,47.59359,-54.27349
2018-07-11 11:50:00+00:00,226.0,226.0,5.61,6.08,,47.59359,-54.27349
2018-07-11 12:00:00+00:00,218.0,219.0,7.91,8.47,,47.59359,-54.27349
2018-07-11 12:10:00+00:00,237.0,235.0,6.41,7.21,,47.59359,-54.27349
2018-07-11 12:20:00+00:00,232.0,225.0,6.55,7.34,,47.59359,-54.27349
2018-07-11 12:30:00+00:00,233.0,233.0,8.43,9.51,,47.59359,-54.27349
2018-07-11 12:40:00+00:00,226.0,225.0,8.32,8.99,,47.59359,-54.27349
2018-07-11 12:50:00+00:00,223.0,222.0,7.45,8.16,,47.59359,-54.27349
2018-07-11 13:00:00+00:00,225.0,225.0,7.71,8.66,,47.59359,-54.27349
2018-07-11 13:10:00+00:00,221.0,219.0,7.35,8.05,,47.59359,-54.27349
2018-07-11 13:20:00+00:00,219.0,219.0,6.94,7.41,,47.59359,-54.27349
2018-07-11 13:30:00+00:00,218.0,217.0,7.2,7.69,,47.59359,-54.27349
2018-07-11 13:40:00+00:00,223.0,222.0,5.95,6.53,,47.59359,-54.27349
2018-07-11 13:50:00+00:00,213.0,222.0,6.02,6.9,,47.59359,-54.27349
2018-07-11 14:00:00+00:00,217.0,213.0,7.06,8.03,,47.59359,-54.27349
2018-07-11 14:10:00+00:00,224.0,225.0,6.58,7.32,,47.59359,-54.27349
2018-07-11 14:20:00+00:00,215.0,215.0,8.08,8.96,,47.59359,-54.27349
2018-07-11 14:30:00+00:00,215.0,214.0,8.3,9.39,,47.59359,-54.27349
2018-07-11 14:40:00+00:00,216.0,220.0,8.39,9.42,,47.59359,-54.27349
2018-07-11 14:50:00+00:00,216.0,215.0,8.59,9.35,,47.59359,-54.27349
2018-07-11 15:00:00+00:00,214.0,215.0,8.53,9.26,,47.59359,-54.27349
2018-07-11 15:10:00+00:00,216.0,219.0,7.77,8.66,,47.59359,-54.27349
2018-07-11 15:20:00+00:00,219.0,221.0,8.59,9.54,,47.59359,-54.27349
2018-07-11 15:30:00+00:00,216.0,218.0,8.44,9.3,,47.59359,-54.27349
2018-07-11 15:40:00+00:00,210.0,211.0,8.79,9.41,,47.59359,-54.27349
2018-07-11 15:50:00+00:00,213.0,211.0,9.52,10.49,,47.59359,-54.27349
2018-07-11 16:00:00+00:00,213.0,216.0,9.42,10.58,,47.59359,-54.27349
2018-07-11 16:10:00+00:00,205.0,208.0,8.73,9.42,,47.59359,-54.27349
2018-07-11 16:20:00+00:00,210.0,215.0,8.9,9.73,,47.59359,-54.27349
2018-07-11 16:30:00+00:00,210.0,211.0,9.35,10.4,,47.59359,-54.27349
2018-07-11 16:40:00+00:00,217.0,216.0,9.9,11.08,,47.59359,-54.27349
2018-07-11 16:50:00+00:00,212.0,214.0,9.64,10.38,,47.59359,-54.27349
2018-07-11 17:00:00+00:00,203.0,206.0,9.11,9.74,,47.59359,-54.27349
2018-07-11 17:10:00+00:00,208.0,209.0,7.55,8.14,,47.59359,-54.27349
2018-07-11 17:20:00+00:00,202.0,205.0,7.7,8.76,,47.59359,-54.27349
2018-07-11 17:30:00+00:00,209.0,210.0,8.61,9.35,,47.59359,-54.27349
2018-07-11 17:40:00+00:00,210.0,208.0,8.52,9.35,,47.59359,-54.27349
2018-07-11 17:50:00+00:00,214.0,213.0,7.5,8.11,,47.59359,-54.27349
2018-07-11 18:00:00+00:00,212.0,214.0,7.62,8.4,,47.59359,-54.27349
2018-07-11 18:10:00+00:00,214.0,218.0,8.52,9.54,,47.59359,-54.27349
2018-07-11 18:20:00+00:00,216.0,218.0,8.05,8.84,,47.59359,-54.27349
2018-07-11 18:30:00+00:00,217.0,218.0,8.51,9.24,,47.59359,-54.27349
2018-07-11 18:40:00+00:00,211.0,215.0,6.41,7.02,,47.59359,-54.27349
2018-07-11 18:50:00+00:00,214.0,212.0,7.1,7.98,,47.59359,-54.27349
2018-07-11 19:00:00+00:00,210.0,209.0,8.09,8.9,,47.59359,-54.27349
2018-07-11 19:10:00+00:00,214.0,214.0,8.58,9.4,,47.59359,-54.27349
2018-07-11 19:20:00+00:00,214.0,216.0,7.54,8.43,,47.59359,-54.27349
2018-07-11 19:30:00+00:00,215.0,216.0,8.43,9.21,,47.59359,-54.27349
2018-07-11 19:40:00+00:00,214.0,217.0,8.44,9.36,,47.59359,-54.27349
2018-07-11 19:50:00+00:00,216.0,215.0,8.27,9.45,,47.59359,-54.27349
2018-07-11 20:00:00+00:00,211.0,210.0,7.08,7.84,,47.59359,-54.27349
2018-07-11 20:10:00+00:00,213.0,213.0,6.85,7.4,,47.59359,-54.27349
2018-07-11 20:20:00+00:00,214.0,214.0,7.13,7.66,,47.59359,-54.27349
2018-07-11 20:30:00+00:00,215.0,215.0,7.08,7.69,,47.59359,-54.27349
2018-07-11 20:40:00+00:00,216.0,217.0,7.26,7.83,,47.59359,-54.27349
2018-07-11 20:50:00+00:00,222.0,222.0,8.0,8.48,,47.59359,-54.27349
2018-07-11 21:00:00+00:00,227.0,228.0,7.98,8.49,,47.59359,-54.27349
2018-07-11 21:10:00+00:00,221.0,222.0,8.58,9.14,,47.59359,-54.27349
2018-07-11 21:20:00+00:00,221.0,222.0,8.42,9.01,,47.59359,-54.27349
2018-07-11 21:30:00+00:00,227.0,228.0,8.78,9.77,,47.59359,-54.27349
2018-07-11 21:40:00+00:00,226.0,225.0,8.47,8.92,,47.59359,-54.27349
2018-07-11 21:50:00+00:00,224.0,225.0,8.69,9.28,,47.59359,-54.27349
2018-07-11 22:00:00+00:00,222.0,223.0,9.48,10.06,,47.59359,-54.27349
2018-07-11 22:10:00+00:00,219.0,220.0,8.04,8.75,,47.59359,-54.27349
2018-07-11 22:20:00+00:00,221.0,222.0,8.93,9.57,,47.59359,-54.27349
2018-07-11 22:30:00+00:00,221.0,222.0,8.97,9.56,,47.59359,-54.27349
2018-07-11 22:40:00+00:00,227.0,229.0,8.47,9.3,,47.59359,-54.27349
2018-07-11 22:50:00+00:00,225.0,228.0,8.79,9.47,,47.59359,-54.27349
2018-07-11 23:00:00+00:00,222.0,225.0,8.59,9.29,,47.59359,-54.27349
2018-07-11 23:10:00+00:00,224.0,222.0,8.6,9.7,,47.59359,-54.27349
2018-07-11 23:20:00+00:00,218.0,218.0,7.97,8.92,,47.59359,-54.27349
2018-07-11 23:30:00+00:00,226.0,228.0,7.42,8.0,,47.59359,-54.27349
2018-07-11 23:40:00+00:00,239.0,240.0,7.57,8.42,,47.59359,-54.27349
2018-07-11 23:50:00+00:00,226.0,228.0,7.6,8.54,,47.59359,-54.27349
